FW6321 Weather Reports


Display with metric or nautical units.
time (UTC)temp
F
wind
direction
speed
MPH
gust
MPH
rain 1hr
in
rain 24hr
in
rain mn
in
humidity
%
barometer
mb
20260510144801 60 22 12.0 20.0 0.00 0.00 0.00 72 1013.7
20260510144304 60 16 12.0 20.0 0.00 0.00 0.00 72 1013.7
20260510143801 61 354 11.0 20.0 0.00 0.00 0.00 72 1013.7
20260510143302 60 1 11.0 21.0 0.00 0.00 0.00 70 1013.7
20260510142806 60 13 11.0 21.0 0.00 0.00 0.00 72 1014.1
20260510142339 60 19 11.0 22.0 0.00 0.00 0.00 71 1013.7
20260510141305 60 20 13.0 23.0 0.00 0.00 0.00 72 1013.8
20260510140805 60 341 11.0 23.0 0.00 0.00 0.00 71 1014.2
20260510140306 60 20 10.0 20.0 0.00 0.00 0.00 71 1014.0
20260510135806 61 8 9.0 20.0 0.00 0.00 0.00 72 1014.0
20260510135305 61 341 8.0 15.0 0.00 0.00 0.00 71 1014.0
20260510134829 61 354 10.0 18.0 0.00 0.00 0.00 71 1014.2
20260510133803 61 335 10.0 17.0 0.00 0.00 0.00 70 1014.3
20260510133259 61 313 12.0 19.0 0.00 0.00 0.00 70 1014.3
20260510132800 61 29 11.0 19.0 0.00 0.00 0.00 68 1014.4
20260510132258 61 343 11.0 20.0 0.00 0.00 0.00 69 1014.5
20260510131757 61 339 11.0 20.0 0.00 0.00 0.00 67 1014.5
20260510131257 62 0 10.0 18.0 0.00 0.00 0.00 67 1014.5
20260510130756 62 343 10.0 17.0 0.00 0.00 0.00 65 1014.6
20260510130255 62 351 11.0 19.0 0.00 0.00 0.00 65 1014.6
20260510125755 61 346 11.0 19.0 0.00 0.00 0.00 64 1014.8
20260510125359 61 23 10.0 19.0 0.00 0.00 0.00 66 1014.8
20260510123756 61 352 11.0 20.0 0.00 0.00 0.00 65 1015.1
20260510123254 61 349 10.0 18.0 0.00 0.00 0.00 68 1014.9
20260510122757 61 43 10.0 22.0 0.00 0.00 0.00 65 1015.0
20260510122257 61 74 11.0 22.0 0.00 0.00 0.00 66 1015.0
20260510121901 62 339 10.0 17.0 0.00 0.00 0.00 65 1015.0
20260510120256 62 270 11.0 17.0 0.00 0.00 0.00 66 1015.3
20260510115754 61 21 12.0 19.0 0.00 0.00 0.00 65 1015.3
20260510115256 61 19 11.0 19.0 0.00 0.00 0.00 64 1015.3
20260510114756 61 21 11.0 19.0 0.00 0.00 0.00 63 1015.4
20260510114254 61 354 12.0 20.0 0.00 0.00 0.00 65 1015.3
20260510113754 61 339 11.0 20.0 0.00 0.00 0.00 60 1015.3
20260510113255 62 6 10.0 18.0 0.00 0.00 0.00 67 1015.4
20260510112754 62 342 10.0 17.0 0.00 0.00 0.00 69 1015.4
20260510112305 62 35 11.0 17.0 0.00 0.00 0.00 67 1015.6
20260510111937 62 342 10.0 17.0 0.00 0.00 0.00 65 1015.6
20260510105755 61 341 12.0 22.0 0.00 0.00 0.00 63 1015.7
20260510105255 61 356 11.0 22.0 0.00 0.00 0.00 63 1015.9
20260510104756 61 18 10.0 19.0 0.00 0.00 0.00 64 1015.8
20260510104256 61 352 9.0 17.0 0.00 0.00 0.00 67 1015.7
20260510103753 61 52 12.0 26.0 0.00 0.00 0.00 68 1015.8
20260510103330 60 263 13.0 26.0 0.00 0.00 0.00 66 1015.9
20260510102254 61 358 10.0 17.0 0.00 0.00 0.00 65 1015.9
20260510101752 60 358 10.0 17.0 0.00 0.00 0.00 65 1015.8
20260510101332 60 309 10.0 18.0 0.00 0.00 0.00 65 1015.9
20260510100351 60 330 10.0 20.0 0.00 0.00 0.00 65 1015.9
20260510095253 60 41 10.0 20.0 0.00 0.00 0.00 68 1016.0
20260510094754 60 6 10.0 18.0 0.00 0.00 0.00 66 1016.0
20260510094252 60 2 9.0 15.0 0.00 0.00 0.00 66 1016.1
20260510093753 60 10 8.0 14.0 0.00 0.00 0.00 65 1016.1
20260510093306 60 6 9.0 15.0 0.00 0.00 0.00 64 1016.1
20260510092753 60 6 8.0 15.0 0.00 0.00 0.00 65 1016.1
20260510092252 60 343 9.0 19.0 0.00 0.00 0.00 65 1016.2
20260510091829 60 0 12.0 20.0 0.00 0.00 0.00 65 1016.2
20260510090754 60 321 12.0 22.0 0.00 0.00 0.00 67 1016.3
20260510090259 60 8 11.0 22.0 0.00 0.00 0.00 68 1016.3
20260510085752 60 40 11.0 22.0 0.00 0.00 0.00 70 1016.3
20260510085254 59 359 10.0 22.0 0.00 0.00 0.00 70 1016.4
20260510084753 59 59 9.0 17.0 0.00 0.00 0.00 73 1016.3
20260510084253 59 273 9.0 17.0 0.00 0.00 0.00 73 1016.4
20260510083751 59 356 10.0 20.0 0.00 0.00 0.00 74 1016.4
20260510083251 59 358 9.0 20.0 0.00 0.00 0.00 74 1016.5
20260510082752 59 14 8.0 18.0 0.00 0.00 0.00 77 1016.5
20260510082249 58 10 9.0 18.0 0.00 0.00 0.00 74 1016.6
20260510081750 58 3 10.0 18.0 0.00 0.00 0.00 76 1016.7
20260510081251 58 33 9.0 17.0 0.00 0.00 0.00 75 1016.6
20260510080819 58 359 7.0 12.0 0.00 0.00 0.00 76 1016.6
20260510075747 58 8 8.0 14.0 0.00 0.00 0.00 76 1016.7
20260510075244 58 31 8.0 16.0 0.00 0.00 0.00 77 1016.6
20260510074739 58 346 7.0 16.0 0.00 0.00 0.00 76 1016.6
20260510074321 57 345 8.0 16.0 0.00 0.00 0.00 78 1016.6
20260510073241 57 19 9.0 19.0 0.00 0.00 0.00 80 1016.7
20260510072742 56 0 9.0 19.0 0.00 0.00 0.00 80 1016.8
20260510072240 56 4 9.0 14.0 0.00 0.00 0.00 81 1016.8
20260510071739 56 330 9.0 16.0 0.00 0.00 0.00 82 1016.9
20260510071237 56 339 9.0 16.0 0.00 0.00 0.00 82 1016.8
20260510070811 55 4 7.0 15.0 0.00 0.00 0.00 83 1016.8
20260510065736 54 352 7.0 13.0 0.00 0.00 0.00 85 1016.7
20260510065234 54 330 7.0 12.0 0.00 0.00 0.00 86 1016.7
20260510064734 54 10 7.0 15.0 0.00 0.00 0.00 86 1016.7
20260510064311 53 330 7.0 15.0 0.00 0.00 0.00 86 1016.7
20260510063404 53 5 7.0 13.0 0.00 0.00 0.00 87 1016.8
20260510061731 52 330 6.0 13.0 0.00 0.00 0.00 89 1016.7
20260510061229 52 330 6.0 12.0 0.00 0.00 0.00 90 1016.8
20260510060732 51 312 5.0 12.0 0.00 0.00 0.00 90 1016.8
20260510060229 51 292 5.0 10.0 0.00 0.00 0.00 91 1016.8
20260510055804 51 2 5.0 10.0 0.00 0.00 0.00 91 1016.8
20260510055430 51 21 6.0 12.0 0.00 0.00 0.00 91 1016.7
20260510053230 50 330 5.0 9.0 0.00 0.00 0.00 92 1016.7
20260510052812 50 296 5.0 9.0 0.00 0.00 0.00 92 1016.7
20260510051730 49 335 5.0 9.0 0.00 0.00 0.00 93 1016.7
20260510051230 49 352 4.0 9.0 0.00 0.00 0.00 93 1016.7
20260510050730 49 330 4.0 9.0 0.00 0.00 0.00 93 1016.7
20260510050228 49 339 4.0 8.0 0.00 0.00 0.00 93 1016.7
20260510045727 49 321 5.0 8.0 0.00 0.00 0.00 93 1016.7
20260510045227 49 330 6.0 9.0 0.00 0.00 0.00 93 1016.7
20260510044813 49 339 6.0 9.0 0.00 0.00 0.00 93 1016.7
20260510043730 49 335 5.0 9.0 0.00 0.00 0.00 93 1016.7
20260510043227 49 314 5.0 9.0 0.00 0.00 0.00 93 1016.8
20260510042833 49 301 5.0 9.0 0.00 0.00 0.00 93 1016.7
20260510041728 49 330 5.0 10.0 0.00 0.00 0.00 93 1016.7
20260510041230 49 312 5.0 10.0 0.00 0.00 0.00 92 1016.7
20260510040729 49 325 6.0 10.0 0.00 0.00 0.00 92 1016.6
20260510040227 49 314 5.0 10.0 0.00 0.00 0.00 92 1016.6
20260510035727 49 1 5.0 10.0 0.00 0.00 0.00 92 1016.6
20260510035227 49 335 5.0 9.0 0.00 0.00 0.00 92 1016.6
20260510034730 49 330 5.0 9.0 0.00 0.00 0.00 92 1016.6
20260510034228 49 330 4.0 8.0 0.00 0.00 0.00 92 1016.6
20260510033728 49 330 4.0 9.0 0.00 0.00 0.00 91 1016.6
20260510033228 49 4 5.0 9.0 0.00 0.00 0.00 91 1016.5
20260510032727 49 310 6.0 10.0 0.00 0.00 0.00 91 1016.5
20260510032228 49 321 6.0 10.0 0.00 0.00 0.00 91 1016.6
20260510031729 49 311 6.0 9.0 0.00 0.00 0.00 91 1016.6
20260510031228 50 354 5.0 12.0 0.00 0.00 0.00 91 1016.6
20260510030729 50 335 5.0 12.0 0.00 0.00 0.00 91 1016.6
20260510030332 50 349 5.0 10.0 0.00 0.00 0.00 91 1016.6
20260510025228 50 352 6.0 11.0 0.00 0.00 0.00 91 1016.7
20260510024728 50 354 7.0 11.0 0.00 0.00 0.00 91 1016.7
20260510024230 50 316 6.0 11.0 0.00 0.00 0.00 91 1016.8
20260510023727 50 325 6.0 11.0 0.00 0.00 0.00 91 1016.7
20260510023227 50 318 6.0 11.0 0.00 0.00 0.00 91 1016.8
20260510022734 50 316 6.0 11.0 0.00 0.00 0.00 91 1016.8
20260510022313 50 330 6.0 10.0 0.00 0.00 0.00 90 1016.9
20260510021300 50 330 5.0 10.0 0.00 0.00 0.00 90 1016.9
20260510020304 50 14 5.0 9.0 0.00 0.00 0.00 90 1017.0
20260510015215 51 325 5.0 10.0 0.00 0.00 0.00 90 1017.0
20260510014720 51 330 6.0 10.0 0.00 0.00 0.00 91 1017.0
20260510014215 51 314 6.0 10.0 0.00 0.00 0.00 91 1017.1
20260510013718 51 325 5.0 10.0 0.00 0.00 0.00 91 1017.1
20260510013214 51 330 5.0 8.0 0.00 0.00 0.00 91 1017.0
20260510012716 51 311 5.0 9.0 0.00 0.00 0.00 91 1016.9
20260510012216 51 356 5.0 9.0 0.00 0.00 0.00 91 1016.9
20260510011717 51 310 5.0 8.0 0.00 0.00 0.00 90 1016.9
20260510011216 51 316 4.0 9.0 0.00 0.00 0.00 91 1016.9
20260510010711 51 330 4.0 9.0 0.00 0.00 0.00 90 1017.0
20260510010213 51 330 4.0 9.0 0.00 0.00 0.00 90 1017.0
20260510005756 51 356 5.0 8.0 0.00 0.00 0.00 90 1017.1
20260510004746 51 314 4.0 8.0 0.00 0.00 0.00 90 1017.2
20260510003712 51 342 4.0 8.0 0.00 0.00 0.00 90 1017.4
20260510003212 51 306 4.0 9.0 0.00 0.00 0.00 90 1017.3
20260510002716 52 11 4.0 9.0 0.00 0.00 0.00 90 1017.3
20260510002212 52 340 4.0 8.0 0.00 0.00 0.00 90 1017.4
20260510001713 52 325 3.0 5.0 0.00 0.00 0.00 90 1017.5
20260510001206 52 325 4.0 8.0 0.00 0.00 0.00 89 1017.6
20260510000706 52 335 4.0 9.0 0.00 0.00 0.00 89 1017.6
20260510000206 52 319 5.0 9.0 0.00 0.00 0.00 89 1017.5
20260509235746 52 287 5.0 9.0 0.00 0.00 0.00 89 1017.5
20260509234738 52 315 5.0 8.0 0.00 0.00 0.00 89 1017.6
20260509233706 52 320 4.0 8.0 0.00 0.00 0.00 88 1017.5
20260509233206 52 339 4.0 7.0 0.00 0.00 0.00 88 1017.5
20260509232705 53 300 4.0 7.0 0.00 0.00 0.00 88 1017.4
20260509232205 53 6 4.0 8.0 0.00 0.00 0.00 88 1017.5
20260509231704 53 335 4.0 8.0 0.00 0.00 0.00 88 1017.5
20260509231206 53 350 4.0 9.0 0.00 0.00 0.00 87 1017.6
20260509230707 53 312 5.0 10.0 0.00 0.00 0.00 87 1017.6
20260509230206 53 325 5.0 10.0 0.00 0.00 0.00 87 1017.5
20260509225706 53 325 5.0 10.0 0.00 0.00 0.00 86 1017.6
20260509225230 53 11 4.0 9.0 0.00 0.00 0.00 86 1017.6
20260509224205 53 0 4.0 8.0 0.00 0.00 0.00 85 1017.7
20260509223729 53 325 5.0 9.0 0.00 0.00 0.00 84 1017.7
20260509222702 54 356 4.0 9.0 0.00 0.00 0.00 83 1017.7
20260509222204 54 330 4.0 9.0 0.00 0.00 0.00 83 1017.6
20260509221704 54 352 5.0 9.0 0.00 0.00 0.00 83 1017.6
20260509221205 54 314 5.0 12.0 0.00 0.00 0.00 82 1017.6
20260509220705 54 325 5.0 12.0 0.00 0.00 0.00 82 1017.7
20260509220204 54 311 4.0 11.0 0.00 0.00 0.00 81 1017.6
20260509215702 54 325 5.0 10.0 0.00 0.00 0.00 81 1017.7
20260509215202 55 8 5.0 9.0 0.00 0.00 0.00 81 1017.6
20260509214702 55 349 5.0 9.0 0.00 0.00 0.00 81 1017.6
20260509214159 55 356 5.0 13.0 0.00 0.00 0.00 80 1017.7
20260509213658 55 26 5.0 13.0 0.00 0.00 0.00 80 1017.6
20260509213155 55 330 4.0 9.0 0.00 0.00 0.00 80 1017.6
20260509212651 55 349 4.0 9.0 0.00 0.00 0.00 79 1017.6
20260509212148 55 316 4.0 10.0 0.00 0.00 0.00 79 1017.7
20260509211649 55 325 5.0 11.0 0.00 0.00 0.00 78 1017.8
20260509211149 55 339 6.0 11.0 0.00 0.00 0.00 78 1017.7
20260509210650 55 343 5.0 10.0 0.00 0.00 0.00 77 1017.6
20260509210217 55 358 5.0 10.0 0.00 0.00 0.00 77 1017.7
20260509205150 56 346 5.0 9.0 0.00 0.00 0.00 76 1017.7
20260509204650 56 345 5.0 10.0 0.00 0.00 0.00 75 1017.6
20260509204147 56 348 5.0 11.0 0.00 0.00 0.00 75 1017.8
20260509203647 56 0 6.0 12.0 0.00 0.00 0.00 74 1017.6
20260509203149 56 309 6.0 12.0 0.00 0.00 0.00 74 1017.6
20260509202730 56 12 6.0 12.0 0.00 0.00 0.00 74 1017.5
20260509201718 56 8 5.0 10.0 0.00 0.00 0.00 73 1017.6
20260509200648 57 1 4.0 8.0 0.00 0.00 0.00 72 1017.6
20260509200147 57 335 4.0 9.0 0.00 0.00 0.00 72 1017.7
20260509195646 57 6 4.0 9.0 0.00 0.00 0.00 72 1017.7
20260509195146 57 345 5.0 9.0 0.00 0.00 0.00 72 1017.7
20260509194646 58 357 5.0 9.0 0.00 0.00 0.00 72 1017.6
20260509194145 58 343 5.0 11.0 0.00 0.00 0.00 71 1017.5
20260509193646 58 356 5.0 11.0 0.00 0.00 0.00 71 1017.5
20260509193146 58 354 4.0 8.0 0.00 0.00 0.00 71 1017.6
20260509192645 58 14 3.0 7.0 0.00 0.00 0.00 70 1017.5
20260509192145 59 11 4.0 9.0 0.00 0.00 0.00 70 1017.5
20260509191647 59 352 5.0 9.0 0.00 0.00 0.00 69 1017.5
20260509191145 59 18 5.0 9.0 0.00 0.00 0.00 69 1017.4
20260509190646 60 355 5.0 10.0 0.00 0.00 0.00 69 1017.5
20260509190145 60 345 6.0 11.0 0.00 0.00 0.00 68 1017.5
20260509185647 60 10 6.0 11.0 0.00 0.00 0.00 68 1017.4
20260509185147 60 15 5.0 10.0 0.00 0.00 0.00 68 1017.3
20260509184651 60 12 6.0 11.0 0.00 0.00 0.00 67 1017.3
20260509184151 60 23 5.0 11.0 0.00 0.00 0.00 66 1017.4
20260509183712 61 2 5.0 9.0 0.00 0.00 0.00 66 1017.2
20260509182647 61 343 4.0 10.0 0.00 0.00 0.00 65 1017.2
20260509182147 61 339 5.0 12.0 0.00 0.00 0.00 65 1017.2
20260509181647 62 330 6.0 13.0 0.00 0.00 0.00 64 1017.2
20260509181146 62 345 7.0 13.0 0.00 0.00 0.00 63 1017.1
20260509180646 62 356 7.0 14.0 0.00 0.00 0.00 63 1017.1
20260509180214 62 352 7.0 14.0 0.00 0.00 0.00 61 1017.2
20260509175145 62 350 8.0 13.0 0.00 0.00 0.00 61 1017.1
20260509174643 62 339 5.0 13.0 0.00 0.00 0.00 61 1017.1
20260509174212 63 31 5.0 10.0 0.00 0.00 0.00 62 1017.1
20260509173142 63 2 6.0 12.0 0.00 0.00 0.00 61 1017.3
20260509172644 63 325 6.0 14.0 0.00 0.00 0.00 60 1017.3
20260509172142 63 16 7.0 14.0 0.00 0.00 0.00 60 1017.3
20260509171641 63 11 8.0 15.0 0.00 0.00 0.00 59 1017.3
20260509171141 63 356 7.0 15.0 0.00 0.00 0.00 59 1017.2
20260509170642 64 320 5.0 13.0 0.00 0.00 0.00 60 1017.3
20260509170142 64 325 7.0 14.0 0.00 0.00 0.00 58 1017.2
20260509165640 64 7 7.0 14.0 0.00 0.00 0.00 56 1017.3
20260509165139 64 349 6.0 14.0 0.00 0.00 0.00 58 1017.3
20260509164640 64 349 6.0 12.0 0.00 0.00 0.00 57 1017.3
20260509164138 64 27 7.0 13.0 0.00 0.00 0.00 57 1017.2
20260509163637 64 320 6.0 13.0 0.00 0.00 0.00 57 1017.3
20260509163211 65 356 7.0 13.0 0.00 0.00 0.00 59 1017.3
20260509162137 64 21 8.0 13.0 0.00 0.00 0.00 57 1017.2
20260509161637 64 354 7.0 13.0 0.00 0.00 0.00 58 1017.2
20260509161140 64 318 7.0 11.0 0.00 0.00 0.00 56 1017.3
20260509160637 64 340 6.0 11.0 0.00 0.00 0.00 57 1017.2
20260509160138 64 358 5.0 10.0 0.00 0.00 0.00 58 1017.3
20260509155748 64 76 4.0 12.0 0.00 0.00 0.00 58 1017.2
20260509154136 65 62 2.0 7.0 0.00 0.00 0.00 55 1017.2
20260509153702 65 73 3.0 7.0 0.00 0.00 0.00 56 1017.2
20260509152718 65 33 5.0 11.0 0.00 0.00 0.00 57 1017.2
20260509151638 66 0 4.0 10.0 0.00 0.00 0.00 56 1017.3
20260509151140 66 8 4.0 10.0 0.00 0.00 0.00 57 1017.3
20260509150709 66 45 4.0 9.0 0.00 0.00 0.00 57 1017.5
20260509145640 66 5 3.0 10.0 0.00 0.00 0.00 55 1017.5
20260509145146 67 25 2.0 7.0 0.00 0.00 0.00 57 1017.4